Sugarloaf Regional (B21)
Carrabassett, ME
Field Elevation: 885
Lat: 45°05.12N  Long: 70°12.98W
CTAF/Unicom Freq: 122.8000
   
    
Weather Advisories
9/1/2014 18:30 Z
Altimeter 29.97" Hg
Wind 080° @ 0 KT
Gusts --
Visibility 9 SM
Temperature 21° C (70° F)
Dewpoint 19° C (66° F)
Relative Humidity 91%
Density Altitude --
Condensation Altitude 1,700 feet
  Wind and Runways
Indicated Runway = 17
History
 
 
More Info
All DigiWx sites map
 
NOAA Forecast
 
Airport IQ 5010
(39N) Princeton, NJ
(PN44) Upper Gwynedd Heliport
 
about DigiWx
 
FAA Disclaimer: The data displayed is for advisory purposes only and is not to be used for flight planning or operations. For official data, please call (not available) to hear the current automated AWOS voice message.
  METAR B21 011830Z AUTO 08000KT 9SM 21/19 A2997